EA7RX-13 Weather Reports


time (UTC)temp
C
wind
direction
speed
KPH
gust
KPH
rain 1hr
cm
rain 24hr
cm
rain mn
cm
humidity
%
barometer
mb
20260507023351 14 0.0 0.0 0.00 0.00 0.00 10 1009.1
20260507022351 15 0.0 0.0 0.00 0.00 0.00 10 1009.1
20260507021351 15 0.0 0.0 0.00 0.00 0.00 10 1008.9
20260507020351 15 0.0 0.0 0.00 0.00 0.00 10 1009.0
20260507015351 15 0.0 0.0 0.00 0.00 0.00 10 1009.0
20260507014351 15 0.0 0.0 0.00 0.00 0.00 10 1009.1
20260507013351 15 0.0 0.0 0.00 0.00 0.00 10 1008.9
20260507012351 15 0.0 0.0 0.00 0.00 0.00 89 1009.0
20260507011351 15 0.0 0.0 0.00 0.00 0.00 10 1009.0
20260507010351 16 0.0 0.0 0.00 0.00 0.00 77 1009.0
20260507005351 16 0.0 0.0 0.00 0.00 0.00 74 1009.1
20260507004351 16 0.0 0.0 0.00 0.00 0.00 72 1008.8
20260507003351 17 0.0 0.0 0.00 0.00 0.00 66 1008.8
20260507002351 17 0.0 0.0 0.00 0.00 0.00 59 1008.8
20260507001351 17 0.0 0.0 0.00 0.00 0.00 58 1009.0
20260507000351 16 0.0 0.0 0.00 0.00 0.00 64 1009.2
20260506235351 17 0.0 0.0 0.00 0.00 0.00 62 1008.8
20260506234351 17 0.0 0.0 0.00 0.00 0.00 62 1008.8
20260506233351 17 0.0 0.0 0.00 0.00 0.00 60 1008.8
20260506232351 17 0.0 0.0 0.00 0.00 0.00 64 1008.9
20260506231351 17 0.0 0.0 0.00 0.00 0.00 60 1008.8
20260506230351 17 0.0 0.0 0.00 0.00 0.00 58 1008.6
20260506225351 17 0.0 0.0 0.00 0.00 0.00 59 1008.5
20260506224351 17 0.0 0.0 0.00 0.00 0.00 64 1008.6
20260506223351 16 0.0 0.0 0.00 0.00 0.00 60 1008.5
20260506222351 17 0.0 0.0 0.00 0.00 0.00 60 1008.5
20260506221351 17 0.0 0.0 0.00 0.00 0.00 59 1008.4
20260506220351 17 0.0 0.0 0.00 0.00 0.00 61 1008.5
20260506215351 17 0.0 0.0 0.00 0.00 0.00 65 1008.8
20260506214351 16 0.0 0.0 0.00 0.00 0.00 67 1008.9
20260506213351 16 0.0 0.0 0.00 0.00 0.00 71 1008.8
20260506212351 16 0.0 0.0 0.00 0.00 0.00 75 1008.7
20260506211351 16 0.0 0.0 0.00 0.00 0.00 80 1008.7
20260506210351 17 0.0 0.0 0.00 0.00 0.00 68 1008.5
20260506205351 17 0.0 0.0 0.00 0.00 0.00 70 1008.4
20260506204351 17 0.0 0.0 0.00 0.00 0.00 72 1008.4
20260506203351 17 0.0 0.0 0.00 0.00 0.00 76 1008.3
20260506202351 17 0.0 0.0 0.00 0.00 0.00 69 1008.2
20260506201351 17 0.0 0.0 0.00 0.00 0.00 70 1008.1
20260506200350 17 0.0 0.0 0.00 0.00 0.00 61 1008.0
20260506195351 17 0.0 0.0 0.00 0.00 0.00 69 1007.8
20260506194351 18 0.0 0.0 0.00 0.00 0.00 72 1007.6
20260506193351 18 0.0 0.0 0.00 0.00 0.00 57 1007.5
20260506192351 19 0.0 0.0 0.00 0.00 0.00 52 1007.3
20260506191350 20 0.0 0.0 0.00 0.00 0.00 46 1007.0
20260506190350 20 0.0 0.0 0.00 0.00 0.00 48 1007.0
20260506185350 21 0.0 0.0 0.00 0.00 0.00 47 1006.9
20260506184351 21 0.0 0.0 0.00 0.00 0.00 43 1006.6
20260506183351 22 0.0 0.0 0.00 0.00 0.00 40 1006.7
20260506182350 22 0.0 0.0 0.00 0.00 0.00 38 1006.7
20260506181351 22 0.0 0.0 0.00 0.00 0.00 39 1006.6
20260506180350 22 0.0 0.0 0.00 0.00 0.00 38 1006.5
20260506175350 22 0.0 0.0 0.00 0.00 0.00 36 1006.7
20260506174350 22 0.0 0.0 0.00 0.00 0.00 39 1006.6
20260506173351 22 0.0 0.0 0.00 0.00 0.00 42 1006.6
20260506172350 23 0.0 0.0 0.00 0.00 0.00 37 1006.7
20260506171350 23 0.0 0.0 0.00 0.00 0.00 35 1006.6
20260506170350 23 0.0 0.0 0.00 0.00 0.00 39 1006.8
20260506165350 24 0.0 0.0 0.00 0.00 0.00 37 1006.6
20260506164350 24 0.0 0.0 0.00 0.00 0.00 37 1006.5
20260506163350 24 0.0 0.0 0.00 0.00 0.00 38 1006.6
20260506162350 23 0.0 0.0 0.00 0.00 0.00 36 1006.9
20260506161350 23 0.0 0.0 0.00 0.00 0.00 37 1006.7
20260506160350 25 0.0 0.0 0.00 0.00 0.00 36 1006.6
20260506155350 25 0.0 0.0 0.00 0.00 0.00 36 1006.6
20260506154350 25 0.0 0.0 0.00 0.00 0.00 35 1006.7
20260506153350 24 0.0 0.0 0.00 0.00 0.00 37 1006.9
20260506152350 25 0.0 0.0 0.00 0.00 0.00 38 1006.9
20260506151350 24 0.0 0.0 0.00 0.00 0.00 37 1007.0
20260506150350 25 0.0 0.0 0.00 0.00 0.00 36 1006.9
20260506145350 25 0.0 0.0 0.00 0.00 0.00 36 1007.1
20260506144350 25 0.0 0.0 0.00 0.00 0.00 36 1007.3
20260506143350 26 0.0 0.0 0.00 0.00 0.00 36 1007.2
20260506142350 26 0.0 0.0 0.00 0.00 0.00 35 1007.3
20260506141350 26 0.0 0.0 0.00 0.00 0.00 35 1007.4
20260506140350 25 0.0 0.0 0.00 0.00 0.00 34 1007.6
20260506135350 26 0.0 0.0 0.00 0.00 0.00 35 1007.6
20260506134350 26 0.0 0.0 0.00 0.00 0.00 35 1007.6
20260506133350 26 0.0 0.0 0.00 0.00 0.00 35 1007.7
20260506132350 26 0.0 0.0 0.00 0.00 0.00 36 1007.8
20260506131350 25 0.0 0.0 0.00 0.00 0.00 35 1007.9
20260506130350 25 0.0 0.0 0.00 0.00 0.00 35 1008.0
20260506125350 25 0.0 0.0 0.00 0.00 0.00 37 1008.3
20260506124350 24 0.0 0.0 0.00 0.00 0.00 35 1008.4
20260506123350 27 0.0 0.0 0.00 0.00 0.00 33 1008.1
20260506122350 25 0.0 0.0 0.00 0.00 0.00 36 1008.3
20260506121350 25 0.0 0.0 0.00 0.00 0.00 34 1008.5
20260506120350 24 0.0 0.0 0.00 0.00 0.00 34 1008.8
20260506115350 25 0.0 0.0 0.00 0.00 0.00 36 1008.7
20260506114350 25 0.0 0.0 0.00 0.00 0.00 34 1008.9
20260506113350 24 0.0 0.0 0.00 0.00 0.00 34 1009.0
20260506112350 25 0.0 0.0 0.00 0.00 0.00 34 1009.0
20260506111350 25 0.0 0.0 0.00 0.00 0.00 36 1009.2
20260506110350 24 0.0 0.0 0.00 0.00 0.00 38 1009.5
20260506105350 23 0.0 0.0 0.00 0.00 0.00 36 1009.6
20260506104350 23 0.0 0.0 0.00 0.00 0.00 41 1009.7
20260506103350 23 0.0 0.0 0.00 0.00 0.00 41 1009.8
20260506102350 21 0.0 0.0 0.00 0.00 0.00 44 1010.2
20260506101350 21 0.0 0.0 0.00 0.00 0.00 45 1010.2
20260506100350 21 0.0 0.0 0.00 0.00 0.00 44 1010.4
20260506095350 21 0.0 0.0 0.00 0.00 0.00 49 1010.3
20260506094350 20 0.0 0.0 0.00 0.00 0.00 48 1010.4
20260506093350 20 0.0 0.0 0.00 0.00 0.00 49 1010.5
20260506092350 20 0.0 0.0 0.00 0.00 0.00 46 1010.4
20260506091350 20 0.0 0.0 0.00 0.00 0.00 48 1010.5
20260506090350 20 0.0 0.0 0.00 0.00 0.00 49 1010.6
20260506085350 20 0.0 0.0 0.00 0.00 0.00 53 1010.6
20260506084350 19 0.0 0.0 0.00 0.00 0.00 51 1010.7
20260506083350 18 0.0 0.0 0.00 0.00 0.00 50 1010.9
20260506082350 18 0.0 0.0 0.00 0.00 0.00 51 1010.8
20260506081350 18 0.0 0.0 0.00 0.00 0.00 54 1011.0
20260506080350 17 0.0 0.0 0.00 0.00 0.00 57 1011.2
20260506073350 15 0.0 0.0 0.00 0.00 0.00 73 1011.5
20260506072350 15 0.0 0.0 0.00 0.00 0.00 77 1011.7
20260506071350 13 0.0 0.0 0.00 0.00 0.00 98 1011.8
20260506070350 13 0.0 0.0 0.00 0.00 0.00 99 1011.9
20260506062350 11 0.0 0.0 0.00 0.00 0.00 10 1012.2
20260506061350 11 0.0 0.0 0.00 0.00 0.00 10 1012.1
20260506060350 11 0.0 0.0 0.00 0.00 0.00 10 1012.1
20260506051350 10 0.0 0.0 0.00 0.00 0.00 10 1012.0
20260506050350 10 0.0 0.0 0.00 0.00 0.00 10 1012.1
20260506044350 11 0.0 0.0 0.00 0.00 0.00 10 1011.9
20260506043350 11 0.0 0.0 0.00 0.00 0.00 10 1011.9
20260506042350 11 0.0 0.0 0.00 0.00 0.00 10 1012.0
20260506041350 11 0.0 0.0 0.00 0.00 0.00 10 1011.9
20260506040350 11 0.0 0.0 0.00 0.00 0.00 10 1012.0
20260506035350 11 0.0 0.0 0.00 0.00 0.00 10 1011.9
20260506034350 11 0.0 0.0 0.00 0.00 0.00 10 1011.9
20260506033350 11 0.0 0.0 0.00 0.00 0.00 10 1012.0
20260506032350 11 0.0 0.0 0.00 0.00 0.00 10 1012.0
20260506031350 11 0.0 0.0 0.00 0.00 0.00 10 1012.0
20260506030350 12 0.0 0.0 0.00 0.00 0.00 10 1012.1
20260506025350 12 0.0 0.0 0.00 0.00 0.00 10 1012.0
20260506024350 11 0.0 0.0 0.00 0.00 0.00 10 1012.0